User: anonymous   Login
Location: Wildcat Hills Observatory
(41.6350°N, 103.6812°W)
Time: 12:12:27
(UTC-06:00)
Language:

NOSS 3-2 (C) - Orbit

View from above orbital plane
View from above orbital plane
View from above satellite
View from above satellite

Ground track
Ground track

The orbit data is extracted from the following two-line orbital elements,

1 28097U 03054C   19112.75755035 0.00000000  00000-0  00000-0 0    02
2 28097  63.4183  35.3251 0367844 358.2604   1.7295 13.40756387    00
Epoch (UTC): 22 April 2019 18:10:52
Eccentricity: 0.0367844
inclination: 63.4183°
perigee height: 831 km
apogee height: 1382 km
right ascension of ascending node: 35.3251°
argument of perigee: 358.2604°
revolutions per day: 13.40756387
mean anomaly at epoch: 1.7295°
orbit number at epoch: 0

The dashed part of the orbit path shows where the satellite is in the earth's shadow,  

DLR